Total_Precipitation_Accumulation
0.37 0.24 0.40 0.38 0.32 0.40 0.25 0.12 0.04 0.03 0.01 0.00 0.00 0.00 0.00 0.00 0.00 0.00 0.00 0.00 0.00 0.00 0.00 0.00 0.00 0.00 0.00 0.00 0.00 0.00 0.01 0.00 0.00 0.00 0.00 0.00 0.01 0.01 0.00 0.01 0.13 0.05 0.03
0.18 0.19 0.35 0.21 0.16 0.31 0.14 0.02 0.01 0.01 0.00 0.00 0.00 0.00 0.00 0.00 0.00 0.00 0.00 0.00 0.00 0.00 0.00 0.00 0.00 0.00 0.00 0.00 0.00 0.00 0.06 0.12 0.15 0.07 0.04 0.02 0.03 0.05 0.02 0.06 0.15 0.06 0.08
0.01 0.01 0.08 0.17 0.18 0.15 0.06 0.05 0.02 0.00 0.00 0.00 0.01 0.01 0.00 0.00 0.00 0.00 0.00 0.00 0.00 0.00 0.00 0.00 0.00 0.00 0.00 0.00 0.00 0.00 0.04 0.16 0.21 0.14 0.13 0.11 0.00 0.05 0.01 0.06 0.06 0.10 0.14
0.00 0.00 0.00 0.07 0.09 0.09 0.02 0.02 0.02 0.01 0.01 0.01 0.01 0.00 0.00 0.00 0.00 0.00 0.00 0.00 0.00 0.00 0.00 0.00 0.00 0.00 0.00 0.00 0.00 0.01 0.00 0.05 0.11 0.09 0.11 0.05 0.01 0.01 0.00 0.04 0.06 0.02 0.04
0.00 0.00 0.01 0.05 0.07 0.03 0.03 0.02 0.04 0.04 0.01 0.00 0.00 0.00 0.00 0.00 0.00 0.00 0.00 0.00 0.00 0.00 0.00 0.00 0.00 0.00 0.00 0.00 0.01 0.04 0.03 0.04 0.13 0.20 0.06 0.01 0.01 0.00 0.00 0.00 0.02 0.04 0.10
0.00 0.01 0.02 0.07 0.06 0.07 0.06 0.02 0.01 0.01 0.00 0.00 0.00 0.00 0.00 0.00 0.00 0.00 0.00 0.00 0.00 0.00 0.00 0.00 0.00 0.00 0.00 0.00 0.02 0.00 0.04 0.06 0.27 0.28 0.12 0.01 0.00 0.01 0.01 0.00 0.01 0.02 0.06
0.00 0.00 0.02 0.09 0.07 0.07 0.04 0.01 0.00 0.00 0.00 0.00 0.00 0.00 0.00 0.00 0.00 0.00 0.02 0.00 0.00 0.00 0.00 0.00 0.00 0.00 0.00 0.00 0.02 0.03 0.04 0.16 0.44 0.57 0.41 0.16 0.01 0.00 0.01 0.00 0.00 0.00 0.03
0.00 0.00 0.00 0.05 0.09 0.04 0.01 0.01 0.00 0.00 0.00 0.00 0.00 0.00 0.00 0.00 0.00 0.03 0.02 0.03 0.01 0.00 0.01 0.02 0.01 0.00 0.00 0.00 0.00 0.00 0.08 0.21 0.46 0.75 1.08 0.43 0.03 0.00 0.00 0.00 0.00 0.00 0.04
0.00 0.00 0.00 0.01 0.04 0.02 0.01 0.00 0.00 0.00 0.00 0.00 0.00 0.00 0.00 0.01 0.04 0.09 0.11 0.08 0.05 0.03 0.02 0.08 0.04 0.00 0.00 0.00 0.00 0.01 0.07 0.15 0.61 1.47 1.47 0.50 0.13 0.01 0.01 0.00 0.00 0.00 0.02
0.00 0.00 0.01 0.04 0.06 0.03 0.00 0.00 0.00 0.00 0.00 0.00 0.00 0.00 0.00 0.02 0.03 0.04 0.07 0.04 0.01 0.01 0.02 0.04 0.01 0.00 0.01 0.00 0.02 0.03 0.08 0.12 0.35 0.62 1.68 0.33 0.23 0.07 0.00 0.00 0.00 0.00 0.00
0.01 0.00 0.00 0.00 0.04 0.04 0.00 0.00 0.00 0.00 0.00 0.00 0.00 0.00 0.00 0.02 0.02 0.06 0.15 0.08 0.00 0.00 0.00 0.00 0.04 0.01 0.01 0.00 0.03 0.03 0.03 0.05 0.07 0.55 0.41 0.15 0.12 0.10 0.01 0.00 0.00 0.00 0.00
0.00 0.01 0.00 0.00 0.01 0.00 0.00 0.00 0.00 0.00 0.00 0.00 0.00 0.00 0.00 0.09 0.03 0.10 0.16 0.06 0.06 0.04 0.04 0.03 0.06 0.04 0.01 0.00 0.01 0.02 0.01 0.00 0.02 0.07 0.10 0.23 0.13 0.11 0.15 0.01 0.00 0.00 0.00
0.00 0.00 0.00 0.00 0.00 0.00 0.01 0.00 0.00 0.00 0.00 0.00 0.00 0.00 0.01 0.06 0.10 0.20 0.22 0.22 0.14 0.46 0.51 0.11 0.07 0.02 0.01 0.00 0.00 0.00 0.00 0.00 0.02 0.02 0.02 0.02 0.07 0.09 0.07 0.16 0.00 0.00 0.00
0.00 0.00 0.00 0.00 0.00 0.01 0.01 0.00 0.00 0.00 0.00 0.00 0.00 0.00 0.00 0.05 0.05 0.12 0.28 0.14 0.34 0.20 0.41 0.12 0.06 0.00 0.00 0.00 0.01 0.00 0.00 0.00 0.00 0.00 0.00 0.02 0.03 0.06 0.06 0.23 0.29 0.07 0.00
0.00 0.00 0.00 0.00 0.00 0.00 0.00 0.00 0.00 0.00 0.00 0.00 0.00 0.00 0.00 0.00 0.12 0.13 0.15 0.14 0.16 0.10 0.07 0.03 0.01 0.00 0.00 0.00 0.00 0.00 0.00 0.00 0.00 0.00 0.01 0.02 0.02 0.02 0.11 0.10 0.27 0.34 0.16
0.00 0.00 0.00 0.00 0.00 0.01 0.00 0.00 0.01 0.00 0.00 0.00 0.00 0.00 0.00 0.00 0.17 0.06 0.09 0.08 0.06 0.02 0.01 0.00 0.00 0.00 0.00 0.00 0.00 0.00 0.00 0.00 0.00 0.00 0.00 0.00 0.02 0.02 0.09 0.21 0.15 0.19 0.31
0.00 0.00 0.00 0.00 0.00 0.01 0.02 0.00 0.00 0.00 0.00 0.00 0.00 0.00 0.03 0.13 0.14 0.01 0.06 0.08 0.05 0.01 0.01 0.02 0.04 0.02 0.00 0.00 0.00 0.00 0.00 0.00 0.00 0.00 0.00 0.00 0.00 0.02 0.03 0.12 0.25 0.20 0.15
0.00 0.00 0.00 0.00 0.00 0.00 0.01 0.02 0.00 0.00 0.00 0.01 0.03 0.04 0.14 0.08 0.04 0.01 0.10 0.11 0.08 0.04 0.04 0.04 0.04 0.01 0.00 0.00 0.00 0.00 0.00 0.00 0.00 0.00 0.00 0.00 0.00 0.00 0.01 0.06 0.08 0.13 0.12
0.00 0.00 0.00 0.00 0.00 0.00 0.00 0.01 0.01 0.04 0.10 0.11 0.05 0.05 0.04 0.08 0.09 0.07 0.06 0.06 0.08 0.07 0.12 0.07 0.03 0.01 0.00 0.00 0.00 0.00 0.00 0.00 0.00 0.00 0.00 0.00 0.00 0.00 0.00 0.03 0.03 0.03 0.03
0.00 0.00 0.00 0.00 0.01 0.06 0.17 0.18 0.07 0.05 0.03 0.01 0.00 0.06 0.07 0.14 0.05 0.12 0.08 0.08 0.06 0.09 0.06 0.09 0.02 0.00 0.00 0.00 0.00 0.00 0.00 0.00 0.00 0.00 0.00 0.00 0.00 0.00 0.00 0.00 0.01 0.06 0.08
0.00 0.00 0.00 0.00 0.02 0.10 0.09 0.06 0.00 0.00 0.00 0.01 0.03 0.05 0.06 0.05 0.08 0.11 0.05 0.08 0.05 0.03 0.01 0.00 0.00 0.00 0.00 0.00 0.00 0.00 0.00 0.00 0.00 0.00 0.00 0.00 0.00 0.00 0.00 0.00 0.00 0.04 0.14
0.00 0.00 0.00 0.00 0.00 0.06 0.02 0.02 0.02 0.00 0.00 0.01 0.01 0.03 0.01 0.01 0.05 0.05 0.05 0.03 0.01 0.01 0.00 0.00 0.00 0.00 0.00 0.00 0.00 0.00 0.00 0.00 0.00 0.00 0.00 0.00 0.00 0.00 0.00 0.00 0.00 0.00 0.04
0.00 0.00 0.00 0.00 0.00 0.05 0.04 0.05 0.08 0.06 0.02 0.01 0.01 0.02 0.02 0.02 0.03 0.05 0.05 0.02 0.01 0.00 0.00 0.00 0.00 0.00 0.00 0.01 0.00 0.00 0.00 0.00 0.00 0.00 0.00 0.00 0.00 0.00 0.00 0.00 0.00 0.00 0.00
0.00 0.00 0.00 0.00 0.00 0.01 0.04 0.01 0.05 0.01 0.00 0.00 0.00 0.00 0.01 0.01 0.01 0.00 0.00 0.00 0.00 0.00 0.00 0.00 0.00 0.00 0.00 0.00 0.00 0.00 0.00 0.00 0.00 0.00 0.00 0.00 0.00 0.00 0.00 0.00 0.00 0.00 0.00
0.00 0.00 0.00 0.00 0.00 0.00 0.02 0.01 0.03 0.01 0.00 0.00 0.00 0.00 0.01 0.02 0.00 0.00 0.00 0.00 0.00 0.00 0.00 0.00 0.00 0.00 0.00 0.00 0.00 0.00 0.00 0.00 0.00 0.00 0.00 0.00 0.00 0.00 0.00 0.00 0.00 0.00 0.00
0.00 0.00 0.00 0.00 0.00 0.00 0.01 0.00 0.02 0.01 0.00 0.00 0.00 0.00 0.00 0.00 0.00 0.00 0.00 0.00 0.00 0.00 0.00 0.00 0.00 0.00 0.00 0.00 0.00 0.00 0.00 0.00 0.00 0.00 0.00 0.00 0.00 0.00 0.00 0.00 0.00 0.00 0.00